Location: Unspecified
(0.0000°N, 0.0000°E)
Time: 07:06:43
(UTC+00:00)

A-11 Canister half - Pass Details

Date: 19 November 2019
Orbit: 1526 x 1683 km, 47.3° (Epoch: 11 December)

Event Time Altitude Azimuth Distance (km) Brightness Sun altitude
Rises 06:08:53 0° 186° (S) 4,886 11.8 5.6°
Reaches altitude 10° 06:14:48 10° 159° (SSE) 3,924 11.8 7.0°
Maximum altitude 06:18:48 13° 135° (SE) 3,708 12.4 7.9°
Drops below altitude 10° 06:22:48 10° 111° (ESE) 3,941 15.3 8.8°
Sets 06:28:40 0° 86° (E) 4,928 13.0 10.2°
